Weather in Starobaltachevo

Russia / Republic of Bashkortostan     56°00′19″N   55°54′36″E
temp.,
°C
wind,
m/s
gust,
m/s
humid.,
%
clouds,
%
prec.,
mm/h
press.,
hPa
HPBL,
m
25 february, thu
thu2523:00−24n499344 0.0 1029169
02:00−27n23960 0.0 103020
05:00−28nnw22960 0.0 103219
08:00−30nw11970 0.0 103219
11:00−25sw12900 0.0 1032132
14:00−21ssw348818 0.0 1031302
17:00−21ssw359323 0.0 1030307
20:00−26s34950 0.0 103034
26 february, fri
fri2623:00−27sse34930 0.0 103049
02:00−27sse49920 0.0 1028160
05:00−26sse498934 0.0 1027209
08:00−25sse4109470 0.0 1025261
11:00−21sse599384 0.1 1024375
14:00−17s51091100 0.0 1022531
17:00−16s51090100 0.1 1020608
20:00−17sse41193100 0.0 1018450
27 february, sat
sat2723:00−17sse5139291 0.1 1016423
02:00−16sse6149192 0.0 1012523
05:00−14se7149496 0.2 1007602
08:00−12se61294100 1.9 1002732
11:00−10sse71293100 3.1 1000776
14:00−7se71294100 1.3 998714
17:00−4sse61195100 2.6 998591
20:00−4se5996100 1.1 998339
28 february, sun
sun2823:00−4se3597100 1.8 998147
02:00−3se2498100 0.8 997131
05:00−2sse2498100 2.0 998137
08:00−3se1298100 0.8 99943
11:00−2se129697 1.3 999194
14:00−1e1210094 0.4 1001204
17:00−1ne239997 1.1 1003244
20:00−5ne589596 0.4 1005219
1 march, mon
mon123:00−9nne589490 0.6 1008242
02:00−12ne489493 0.1 1010229
05:00−14nne489492 0.3 1012250
08:00−15ne479489 0.1 1014252
11:00−14nne469387 0.1 1015328
14:00−12nne459198 0.1 1016413
17:00−12n459199 0.1 1017410
20:00−17n339587 0.0 101844